This is the latest recevied weather packets stored in our database for station/object KF7SOJ. If no packets are shown the sender has not sent any weather packets the latest 10 day(s).
| Time | Temp. | Humidity | Pressure | Rain* | Wind** | Luminosity | Snow |
|---|---|---|---|---|---|---|---|
| 1777857370 | 22.78° C | 24% | 923.4 hPa | 0 mm | - | 94 W/m² | - |
| 1777857066 | 22.78° C | 24% | 923.4 hPa | 0 mm | - | 99 W/m² | - |
| 1777856762 | 23.33° C | 23% | 923.5 hPa | 0 mm | - | 88 W/m² | - |
| 1777856458 | 23.33° C | 23% | 923.6 hPa | 0 mm | - | 91 W/m² | - |
| 1777856155 | 23.33° C | 21% | 923.6 hPa | 0 mm | - | 96 W/m² | - |
| 1777855853 | 23.89° C | 21% | 923.5 hPa | 0 mm | - | 100 W/m² | - |
| 1777855550 | 23.89° C | 21% | 923.5 hPa | 0 mm | - | 118 W/m² | - |
| 1777855247 | 24.44° C | 20% | 923.7 hPa | 0 mm | - | 131 W/m² | - |
| 1777854943 | 25° C | 20% | 923.6 hPa | 0 mm | - | 168 W/m² | - |
| 1777854640 | 25° C | 20% | 923.7 hPa | 0 mm | - | 197 W/m² | - |
| 1777854337 | 25° C | 20% | 923.5 hPa | 0 mm | - | 227 W/m² | - |
| 1777854035 | 25° C | 19% | 923.7 hPa | 0 mm | - | 247 W/m² | - |
| 1777853732 | 25.56° C | 18% | 923.8 hPa | 0 mm | - | 289 W/m² | - |
| 1777853428 | 25.56° C | 19% | 923.8 hPa | 0 mm | - | 318 W/m² | - |
| 1777853126 | 25° C | 20% | 923.9 hPa | 0 mm | - | 329 W/m² | - |
| 1777852823 | 25° C | 17% | 923.8 hPa | 0 mm | - | 218 W/m² | - |
| 1777852521 | 25° C | 17% | 923.9 hPa | 0 mm | - | 359 W/m² | - |
| 1777852217 | 25.56° C | 18% | 923.9 hPa | 0 mm | - | 378 W/m² | - |
| 1777851915 | 25° C | 19% | 924 hPa | 0 mm | - | 398 W/m² | - |
| 1777851614 | 25.56° C | 17% | 924 hPa | 0 mm | - | 416 W/m² | - |
| 1777851309 | 25.56° C | 17% | 924.2 hPa | 0 mm | - | 433 W/m² | - |
| 1777851005 | 25.56° C | 17% | 924.3 hPa | 0 mm | - | 449 W/m² | - |
| 1777850702 | 25° C | 16% | 924.3 hPa | 0 mm | - | 470 W/m² | - |
| 1777850400 | 25° C | 16% | 924.4 hPa | 0 mm | - | 485 W/m² | - |
| 1777850098 | 25.56° C | 17% | 924.3 hPa | 0 mm | - | 510 W/m² | - |
* Rain latest hour (hover to see other rain measurements)
** Current wind speed in m/s (hover to see current wind gust speed)